Abraham Lincoln Capital Airport Springfield US
ICAO: KSPI
IATA: SPI
Category: Large
Scheduled Services: Yes

Elevation: 598 ft
TransAlt. 18000 ft.

Airport Communications:
SPRINGFIELD APP/DEP:118.6
ATIS:127.65
CLNC DEL:121.7
CTAF:121.3
GND:121.9
ANG OPS:27.217
ST LOUIS RDO:122.25
SPRINGFIELD TWR:121.3
UNICOM:131.42

KSPI Zoom In..

Runways:

(A) RW 04 length 8001 ft width 150 ft
ILS 109.50 / hdg 43

(B) RW 13 length 7400 ft width 150 ft
---- / hdg 128

(C) RW 18 length 5300 ft width 150 ft
---- / hdg 182

(D) RW 22 length 8001 ft width 150 ft
ILS 111.70 / hdg 223

(E) RW 31 length 7400 ft width 150 ft
ILS 110.15 / hdg 308

(F) RW 36 length 5300 ft width 150 ft
---- / hdg 2

Location; KSPI
Day. 27 / Time. 07.52 Zulu
* Altimeter: 30.09
* Temperature: 02° c. 35.6°f.
* Wind from: 150° Speed 04 kn.
Dewpoint: 02° c.
Visibility: 5 Statute Miles.
Clouds: Clear (automated report).
Conditions: Mist.

KSPI 270752Z AUTO 15004KT 5SM BR CLR 02/02 A3009 RMK AO2 SLP192 T00170017

Going to: --> -->


Wind From 150°
Speed 04 kn.

 
 
jpsmedia worldairports.se 2020   terms of use